FW3613 Weather Reports


Display with metric or nautical units.
time (UTC)temp
F
wind
direction
speed
MPH
gust
MPH
rain 1hr
in
rain 24hr
in
rain mn
in
humidity
%
barometer
mb
20260902002539 83 308 5.0 9.0 0.00 0.00 0.00 31 1005.7
20260902002039 84 322 2.0 8.0 0.00 0.00 0.00 32 1005.7
20260902001554 84 307 4.0 8.0 0.00 0.00 0.00 31 1005.7
20260902001041 84 322 4.0 10.0 0.00 0.00 0.00 31 1005.6
20260902000538 84 323 2.0 10.0 0.00 0.00 0.00 31 1005.7
20260902000043 85 323 5.0 9.0 0.00 0.00 0.00 31 1005.6
20260901235540 85 316 4.0 7.0 0.00 0.00 0.00 30 1005.5
20260901235038 85 318 3.0 8.0 0.00 0.00 0.00 30 1005.6
20260901234537 85 328 3.0 8.0 0.00 0.00 0.00 31 1005.7
20260901234038 85 338 3.0 8.0 0.00 0.00 0.00 30 1005.7
20260901233536 86 307 4.0 7.0 0.00 0.00 0.00 29 1005.8
20260901233036 86 319 3.0 8.0 0.00 0.00 0.00 29 1005.8
20260901232535 86 323 3.0 8.0 0.00 0.00 0.00 29 1005.9
20260901232034 86 329 4.0 7.0 0.00 0.00 0.00 29 1005.9
20260901231533 86 326 3.0 8.0 0.00 0.00 0.00 30 1006.0
20260901231034 87 321 3.0 9.0 0.00 0.00 0.00 29 1006.1
20260901230532 87 314 3.0 9.0 0.00 0.00 0.00 30 1006.1
20260901230033 87 304 1.0 8.0 0.00 0.00 0.00 30 1006.2
20260901225531 87 328 3.0 8.0 0.00 0.00 0.00 29 1006.2
20260901225031 87 323 3.0 8.0 0.00 0.00 0.00 29 1006.3
20260901224529 87 340 2.0 7.0 0.00 0.00 0.00 28 1006.5
20260901224029 87 302 1.0 6.0 0.00 0.00 0.00 29 1006.5
20260901223527 87 314 1.0 6.0 0.00 0.00 0.00 29 1006.6
20260901223027 87 314 2.0 6.0 0.00 0.00 0.00 29 1006.6
20260901222529 87 169 1.0 5.0 0.00 0.00 0.00 31 1006.7
20260901222026 87 319 1.0 4.0 0.00 0.00 0.00 30 1006.7
20260901221524 86 143 1.0 4.0 0.00 0.00 0.00 30 1006.9
20260901221023 86 303 1.0 5.0 0.00 0.00 0.00 31 1007.0
20260901220521 85 319 1.0 5.0 0.00 0.00 0.00 31 1007.0
20260901220022 86 309 2.0 5.0 0.00 0.00 0.00 31 1007.1
20260901215522 86 317 2.0 4.0 0.00 0.00 0.00 31 1007.2
20260901215021 85 318 0.0 7.0 0.00 0.00 0.00 32 1007.3
20260901214521 85 308 0.0 7.0 0.00 0.00 0.00 33 1007.5
20260901214017 85 311 1.0 6.0 0.00 0.00 0.00 34 1007.6
20260901213517 84 305 2.0 7.0 0.00 0.00 0.00 34 1007.6
20260901213018 84 312 1.0 7.0 0.00 0.00 0.00 35 1007.7
20260901212516 84 298 1.0 8.0 0.00 0.00 0.00 36 1007.7
20260901212018 84 321 2.0 8.0 0.00 0.00 0.00 36 1007.7
20260901211516 83 323 2.0 6.0 0.00 0.00 0.00 37 1007.9
20260901211013 83 323 2.0 6.0 0.00 0.00 0.00 36 1007.9
20260901210517 83 308 2.0 6.0 0.00 0.00 0.00 38 1008.0
20260901210012 82 323 1.0 6.0 0.00 0.00 0.00 38 1008.1
20260901205513 82 316 3.0 6.0 0.00 0.00 0.00 38 1008.2
20260901205012 82 302 1.0 6.0 0.00 0.00 0.00 39 1008.3
20260901204513 82 270 2.0 5.0 0.00 0.00 0.00 38 1008.3
20260901204010 82 222 1.0 4.0 0.00 0.00 0.00 39 1008.4
20260901203509 81 305 2.0 8.0 0.00 0.00 0.00 39 1008.4
20260901203009 82 99 3.0 8.0 0.00 0.00 0.00 39 1008.5
20260901202507 81 134 1.0 7.0 0.00 0.00 0.00 41 1008.6
20260901202006 80 319 1.0 7.0 0.00 0.00 0.00 42 1008.7
20260901201505 80 283 2.0 8.0 0.00 0.00 0.00 42 1008.8
20260901201005 80 318 4.0 8.0 0.00 0.00 0.00 42 1008.9
20260901200503 79 304 2.0 9.0 0.00 0.00 0.00 42 1008.9
20260901200003 79 305 4.0 9.0 0.00 0.00 0.00 43 1009.1
20260901195504 78 322 3.0 9.0 0.00 0.00 0.00 44 1009.2
20260901195003 78 349 4.0 9.0 0.00 0.00 0.00 44 1009.3
20260901194502 78 329 4.0 8.0 0.00 0.00 0.00 45 1009.3
20260901194002 77 320 3.0 6.0 0.00 0.00 0.00 46 1009.5
20260901193502 77 322 2.0 11.0 0.00 0.00 0.00 46 1009.6
20260901193002 77 1 4.0 11.0 0.00 0.00 0.00 47 1009.7
20260901192502 77 342 5.0 11.0 0.00 0.00 0.00 47 1009.8
20260901192002 77 300 5.0 10.0 0.00 0.00 0.00 46 1009.8
20260901191502 77 322 4.0 9.0 0.00 0.00 0.00 46 1009.9
20260901191100 77 333 5.0 9.0 0.00 0.00 0.00 45 1009.8
20260901190600 77 326 4.0 9.0 0.00 0.00 0.00 45 1009.8
20260901190100 77 313 3.0 9.0 0.00 0.00 0.00 44 1009.7
20260901185600 78 324 2.0 8.0 0.00 0.00 0.00 45 1009.7
20260901185059 78 319 2.0 7.0 0.00 0.00 0.00 44 1009.7
20260901184559 78 324 2.0 6.0 0.00 0.00 0.00 45 1009.7
20260901184059 78 326 2.0 6.0 0.00 0.00 0.00 45 1009.6
20260901183558 78 148 0.0 3.0 0.00 0.00 0.00 44 1009.7
20260901183101 78 139 0.0 5.0 0.00 0.00 0.00 46 1009.7
20260901182601 78 328 1.0 6.0 0.00 0.00 0.00 46 1009.6
20260901182057 78 143 3.0 7.0 0.00 0.00 0.00 43 1009.6
20260901181601 79 124 2.0 7.0 0.00 0.00 0.00 43 1009.4
20260901181055 79 330 1.0 8.0 0.00 0.00 0.00 42 1009.4
20260901180554 79 317 4.0 8.0 0.00 0.00 0.00 41 1009.4
20260901180053 78 156 1.0 9.0 0.00 0.00 0.00 43 1009.6
20260901175551 78 199 1.0 11.0 0.00 0.00 0.00 43 1009.6
20260901175052 77 326 3.0 10.0 0.00 0.00 0.00 42 1009.4
20260901174552 77 340 5.0 13.0 0.00 0.00 0.00 42 1009.4
20260901174051 77 301 5.0 13.0 0.00 0.00 0.00 42 1009.5
20260901173551 77 311 5.0 9.0 0.00 0.00 0.00 40 1009.5
20260901173059 77 311 3.0 10.0 0.00 0.00 0.00 41 1009.3
20260901172552 77 315 5.0 10.0 0.00 0.00 0.00 41 1009.3
20260901172050 77 328 1.0 9.0 0.00 0.00 0.00 43 1009.5
20260901171601 77 313 3.0 9.0 0.00 0.00 0.00 41 1009.3
20260901171048 76 143 2.0 6.0 0.00 0.00 0.00 42 1009.5
20260901170548 76 324 3.0 8.0 0.00 0.00 0.00 42 1009.4
20260901170048 76 325 4.0 8.0 0.00 0.00 0.00 42 1009.4
20260901165547 75 153 0.0 4.0 0.00 0.00 0.00 46 1009.5
20260901165047 75 330 1.0 6.0 0.00 0.00 0.00 43 1009.4
20260901164547 74 291 1.0 6.0 0.00 0.00 0.00 44 1009.6
20260901164048 74 146 1.0 9.0 0.00 0.00 0.00 45 1009.5
20260901163545 74 311 5.0 9.0 0.00 0.00 0.00 44 1009.5
20260901163045 73 309 3.0 8.0 0.00 0.00 0.00 45 1009.4
20260901162545 73 264 2.0 6.0 0.00 0.00 0.00 45 1009.4
20260901162044 72 315 3.0 8.0 0.00 0.00 0.00 45 1009.3
20260901161600 72 301 3.0 8.0 0.00 0.00 0.00 44 1009.2
20260901161044 72 323 1.0 7.0 0.00 0.00 0.00 47 1009.3
20260901160544 71 312 1.0 6.0 0.00 0.00 0.00 47 1009.2
20260901160042 70 290 1.0 6.0 0.00 0.00 0.00 48 1009.2
20260901155542 70 335 2.0 8.0 0.00 0.00 0.00 49 1009.2
20260901155042 70 324 4.0 8.0 0.00 0.00 0.00 48 1009.2
20260901154553 70 354 2.0 8.0 0.00 0.00 0.00 48 1009.1
20260901154045 70 295 0.0 4.0 0.00 0.00 0.00 49 1009.0
20260901153541 69 291 1.0 6.0 0.00 0.00 0.00 49 1008.9
20260901153049 69 339 3.0 6.0 0.00 0.00 0.00 49 1008.9
20260901152542 68 338 1.0 3.0 0.00 0.00 0.00 48 1009.0
20260901152040 68 323 1.0 3.0 0.00 0.00 0.00 48 1009.0
20260901151541 68 293 0.0 2.0 0.00 0.00 0.00 48 1009.0
20260901151040 68 313 0.0 4.0 0.00 0.00 0.00 49 1009.0
20260901150539 67 263 1.0 4.0 0.00 0.00 0.00 48 1009.0
20260901150042 67 311 1.0 5.0 0.00 0.00 0.00 49 1009.1
20260901145538 67 1 1.0 5.0 0.00 0.00 0.00 49 1008.9
20260901145038 67 143 2.0 5.0 0.00 0.00 0.00 49 1009.1
20260901144542 66 168 1.0 4.0 0.00 0.00 0.00 50 1008.9
20260901144037 66 151 1.0 5.0 0.00 0.00 0.00 49 1008.7
20260901143537 66 301 0.0 5.0 0.00 0.00 0.00 48 1008.8
20260901143045 66 129 2.0 4.0 0.00 0.00 0.00 47 1008.8
20260901142536 66 312 1.0 4.0 0.00 0.00 0.00 45 1008.7
20260901142036 66 155 0.0 6.0 0.00 0.00 0.00 46 1008.7
20260901141546 66 173 1.0 6.0 0.00 0.00 0.00 44 1008.7
20260901141035 66 322 1.0 6.0 0.00 0.00 0.00 43 1008.7
20260901140535 67 312 3.0 6.0 0.00 0.00 0.00 42 1008.6
20260901140035 67 133 1.0 4.0 0.00 0.00 0.00 43 1008.6
20260901135537 67 61 2.0 4.0 0.00 0.00 0.00 43 1008.5
20260901135035 68 325 1.0 8.0 0.00 0.00 0.00 42 1008.5
20260901134535 68 88 0.0 8.0 0.00 0.00 0.00 42 1008.4
20260901134034 68 323 0.0 4.0 0.00 0.00 0.00 41 1008.5
20260901133536 69 278 1.0 4.0 0.00 0.00 0.00 40 1008.4
20260901133035 70 309 1.0 7.0 0.00 0.00 0.00 38 1008.4
20260901132538 72 159 2.0 7.0 0.00 0.00 0.00 36 1008.4
20260901132034 76 306 1.0 7.0 0.00 0.00 0.00 38 1008.4
20260901131532 76 135 3.0 8.0 0.00 0.00 0.00 37 1008.3
20260901131033 76 135 3.0 8.0 0.00 0.00 0.00 37 1008.3
20260901130532 76 122 2.0 8.0 0.00 0.00 0.00 37 1008.2
20260901130032 76 51 1.0 8.0 0.00 0.00 0.00 37 1008.1
20260901125532 76 141 2.0 7.0 0.00 0.00 0.00 37 1008.0
20260901125032 76 129 4.0 7.0 0.00 0.00 0.00 37 1007.9
20260901124532 75 134 2.0 9.0 0.00 0.00 0.00 37 1007.9
20260901124031 75 102 2.0 9.0 0.00 0.00 0.00 37 1007.9
20260901123531 75 47 1.0 4.0 0.00 0.00 0.00 37 1007.9
20260901123032 76 141 1.0 5.0 0.00 0.00 0.00 37 1007.8
20260901122531 76 142 2.0 6.0 0.00 0.00 0.00 36 1007.9
20260901122030 76 141 2.0 8.0 0.00 0.00 0.00 36 1008.0
20260901121532 77 80 3.0 11.0 0.00 0.00 0.00 35 1007.9
20260901121029 77 148 4.0 11.0 0.00 0.00 0.00 35 1007.7
20260901120529 77 108 4.0 10.0 0.00 0.00 0.00 35 1007.6
20260901120031 77 88 4.0 10.0 0.00 0.00 0.00 35 1007.5
20260901115532 77 173 2.0 9.0 0.00 0.00 0.00 35 1007.5
20260901115029 77 86 3.0 12.0 0.00 0.00 0.00 35 1007.6
20260901114529 77 105 5.0 12.0 0.00 0.00 0.00 34 1007.4
20260901114028 77 291 3.0 9.0 0.00 0.00 0.00 34 1007.3
20260901113529 77 56 3.0 11.0 0.00 0.00 0.00 34 1007.3
20260901113028 77 90 4.0 11.0 0.00 0.00 0.00 33 1007.2
20260901112527 77 146 4.0 12.0 0.00 0.00 0.00 33 1007.1
20260901112026 78 114 7.0 12.0 0.00 0.00 0.00 32 1007.0
20260901111524 78 144 6.0 14.0 0.00 0.00 0.00 32 1006.7
20260901111022 78 129 8.0 14.0 0.00 0.00 0.00 31 1006.8
20260901110521 78 138 6.0 14.0 0.00 0.00 0.00 31 1006.6
20260901110023 78 135 6.0 15.0 0.00 0.00 0.00 31 1006.7
20260901105519 77 115 7.0 15.0 0.00 0.00 0.00 30 1006.6
20260901105020 77 129 7.0 17.0 0.00 0.00 0.00 30 1006.4
20260901104518 77 93 6.0 17.0 0.00 0.00 0.00 30 1006.6
20260901104020 77 46 8.0 17.0 0.00 0.00 0.00 30 1006.6
20260901103517 77 315 5.0 16.0 0.00 0.00 0.00 30 1006.5
20260901103017 77 21 6.0 17.0 0.00 0.00 0.00 30 1006.6
20260901102517 77 89 7.0 17.0 0.00 0.00 0.00 30 1006.6
20260901102016 77 120 5.0 13.0 0.00 0.00 0.00 30 1006.6
20260901101515 77 134 5.0 14.0 0.00 0.00 0.00 30 1006.9
20260901101018 77 101 6.0 14.0 0.00 0.00 0.00 29 1006.8
20260901100516 77 88 6.0 14.0 0.00 0.00 0.00 28 1006.9
20260901100013 78 66 6.0 13.0 0.00 0.00 0.00 28 1007.0
20260901095513 77 255 6.0 13.0 0.00 0.00 0.00 28 1007.2
20260901095012 77 59 5.0 15.0 0.00 0.00 0.00 29 1007.2
20260901094511 77 133 6.0 9.0 0.00 0.00 0.00 28 1007.2
20260901094010 77 91 4.0 9.0 0.00 0.00 0.00 28 1007.3
20260901093508 76 211 3.0 9.0 0.00 0.00 0.00 29 1007.3
20260901093006 75 124 4.0 10.0 0.00 0.00 0.00 29 1007.5
20260901092505 74 143 3.0 7.0 0.00 0.00 0.00 30 1007.3
20260901092004 72 93 2.0 5.0 0.00 0.00 0.00 31 1007.5
20260901091503 72 86 2.0 5.0 0.00 0.00 0.00 30 1007.6
20260901091002 72 68 2.0 5.0 0.00 0.00 0.00 30 1007.7
20260901090501 72 105 3.0 5.0 0.00 0.00 0.00 29 1007.7
20260901090006 72 98 3.0 5.0 0.00 0.00 0.00 29 1007.7
20260901085559 71 91 2.0 4.0 0.00 0.00 0.00 30 1007.8
20260901085102 71 150 1.0 4.0 0.00 0.00 0.00 30 1007.8
20260901084558 71 85 0.0 4.0 0.00 0.00 0.00 30 1007.8
20260901084056 70 110 1.0 3.0 0.00 0.00 0.00 32 1008.0
20260901083554 69 127 0.0 2.0 0.00 0.00 0.00 31 1008.0
20260901083054 69 97 0.0 2.0 0.00 0.00 0.00 34 1008.0
20260901082552 68 73 0.0 3.0 0.00 0.00 0.00 33 1008.0
20260901082050 66 62 1.0 3.0 0.00 0.00 0.00 35 1008.2
20260901081548 66 133 0.0 1.0 0.00 0.00 0.00 39 1008.2
20260901081046 65 132 0.0 1.0 0.00 0.00 0.00 40 1008.3
20260901080545 64 307 0.0 3.0 0.00 0.00 0.00 43 1008.4
20260901080045 64 307 0.0 3.0 0.00 0.00 0.00 46 1008.4
20260901075545 64 143 0.0 1.0 0.00 0.00 0.00 46 1008.4
20260901075044 64 144 0.0 2.0 0.00 0.00 0.00 47 1008.5
20260901074547 63 144 0.0 2.0 0.00 0.00 0.00 45 1008.4
20260901074042 63 150 0.0 2.0 0.00 0.00 0.00 52 1008.4
20260901073644 62 134 0.0 1.0 0.00 0.00 0.00 57 1008.5
20260901073041 63 134 0.0 0.0 0.00 0.00 0.00 58 1008.5
20260901072541 63 134 0.0 0.0 0.00 0.00 0.00 57 1008.5
20260901072041 62 134 0.0 0.0 0.00 0.00 0.00 58 1008.5
20260901071540 62 134 0.0 0.0 0.00 0.00 0.00 59 1008.5
20260901071039 62 134 0.0 0.0 0.00 0.00 0.00 59 1008.6
20260901070541 63 134 0.0 0.0 0.00 0.00 0.00 58 1008.6
20260901070049 62 134 0.0 0.0 0.00 0.00 0.00 56 1008.5
20260901065541 62 134 0.0 0.0 0.00 0.00 0.00 56 1008.6
20260901065038 62 134 0.0 0.0 0.00 0.00 0.00 55 1008.6
20260901064538 62 134 0.0 1.0 0.00 0.00 0.00 57 1008.7
20260901064038 61 134 0.0 2.0 0.00 0.00 0.00 57 1008.7
20260901063537 61 134 0.0 2.0 0.00 0.00 0.00 57 1008.7
20260901063038 61 127 0.0 2.0 0.00 0.00 0.00 59 1008.6
20260901062536 61 126 0.0 2.0 0.00 0.00 0.00 58 1008.6
20260901062035 62 138 0.0 0.0 0.00 0.00 0.00 60 1008.6
20260901061534 62 139 0.0 0.0 0.00 0.00 0.00 61 1008.7
20260901061032 62 137 0.0 1.0 0.00 0.00 0.00 61 1008.7
20260901060532 63 137 0.0 1.0 0.00 0.00 0.00 57 1008.8
20260901060030 63 136 0.0 1.0 0.00 0.00 0.00 53 1008.8
20260901055528 63 137 0.0 1.0 0.00 0.00 0.00 54 1008.8
20260901055028 63 136 0.0 1.0 0.00 0.00 0.00 55 1008.9
20260901054529 63 137 0.0 2.0 0.00 0.00 0.00 55 1009.0
20260901054030 63 141 0.0 2.0 0.00 0.00 0.00 55 1008.9
20260901053527 63 134 0.0 2.0 0.00 0.00 0.00 55 1008.8
20260901053027 63 129 0.0 2.0 0.00 0.00 0.00 54 1009.0
20260901052528 63 139 0.0 1.0 0.00 0.00 0.00 55 1009.1
20260901052027 64 139 0.0 1.0 0.00 0.00 0.00 55 1009.1
20260901051526 64 139 0.0 1.0 0.00 0.00 0.00 49 1009.2
20260901051026 65 139 0.0 1.0 0.00 0.00 0.00 50 1009.2
20260901050526 64 139 0.0 1.0 0.00 0.00 0.00 51 1009.3
20260901050026 64 139 0.0 0.0 0.00 0.00 0.00 52 1009.3
20260901045526 64 139 0.0 1.0 0.00 0.00 0.00 51 1009.3
20260901045025 66 139 0.0 1.0 0.00 0.00 0.00 51 1009.3
20260901044538 67 132 0.0 1.0 0.00 0.00 0.00 44 1009.2
20260901044025 67 325 0.0 1.0 0.00 0.00 0.00 39 1009.0
20260901043527 66 325 0.0 1.0 0.00 0.00 0.00 39 1009.1
20260901043025 66 325 0.0 0.0 0.00 0.00 0.00 49 1009.1
20260901042527 66 325 0.0 0.0 0.00 0.00 0.00 48 1008.9
20260901042024 66 325 0.0 0.0 0.00 0.00 0.00 48 1008.9
20260901041528 66 122 0.0 0.0 0.00 0.00 0.00 52 1008.9
20260901041025 66 125 0.0 1.0 0.00 0.00 0.00 51 1008.9
20260901040524 67 127 0.0 1.0 0.00 0.00 0.00 49 1008.8
20260901040024 68 123 0.0 0.0 0.00 0.00 0.00 45 1008.9
20260901035524 68 122 0.0 0.0 0.00 0.00 0.00 44 1008.8
20260901035022 68 146 0.0 0.0 0.00 0.00 0.00 48 1008.8
20260901034532 68 146 0.0 0.0 0.00 0.00 0.00 47 1008.8
20260901034026 69 147 0.0 0.0 0.00 0.00 0.00 46 1008.8
20260901033523 69 146 0.0 0.0 0.00 0.00 0.00 46 1008.8
20260901033044 68 146 0.0 0.0 0.00 0.00 0.00 45 1008.8
20260901032523 68 146 0.0 0.0 0.00 0.00 0.00 46 1008.7
20260901032022 69 146 0.0 0.0 0.00 0.00 0.00 47 1008.7
20260901031521 70 146 0.0 0.0 0.00 0.00 0.00 47 1008.6
20260901031020 70 146 0.0 0.0 0.00 0.00 0.00 46 1008.6
20260901030520 71 146 0.0 1.0 0.00 0.00 0.00 45 1008.6
20260901030027 72 146 0.0 4.0 0.00 0.00 0.00 44 1008.5
20260901025520 72 317 0.0 4.0 0.00 0.00 0.00 40 1008.5
20260901025020 72 134 0.0 2.0 0.00 0.00 0.00 43 1008.4
20260901024523 72 135 0.0 1.0 0.00 0.00 0.00 44 1008.5
20260901024020 72 135 0.0 1.0 0.00 0.00 0.00 44 1008.5
20260901023518 73 138 0.0 1.0 0.00 0.00 0.00 42 1008.5
20260901023019 74 135 0.0 1.0 0.00 0.00 0.00 41 1008.4
20260901022520 74 208 0.0 0.0 0.00 0.00 0.00 40 1008.5
20260901022019 75 209 0.0 0.0 0.00 0.00 0.00 39 1008.5
20260901021520 76 211 0.0 0.0 0.00 0.00 0.00 37 1008.5
20260901021017 78 211 0.0 0.0 0.00 0.00 0.00 36 1008.5
20260901020516 78 211 0.0 0.0 0.00 0.00 0.00 37 1008.7
20260901020016 79 211 0.0 0.0 0.00 0.00 0.00 34 1008.7
20260901015514 79 212 0.0 0.0 0.00 0.00 0.00 34 1008.7
20260901015014 80 211 0.0 0.0 0.00 0.00 0.00 35 1008.8
20260901014514 80 211 0.0 0.0 0.00 0.00 0.00 36 1008.8
20260901014014 80 211 0.0 0.0 0.00 0.00 0.00 33 1008.9
20260901013514 81 214 0.0 0.0 0.00 0.00 0.00 35 1008.9
20260901013014 82 214 0.0 0.0 0.00 0.00 0.00 32 1008.9
20260901012513 82 215 0.0 1.0 0.00 0.00 0.00 28 1008.9
20260901012012 83 215 0.0 1.0 0.00 0.00 0.00 27 1008.9
20260901011513 83 237 0.0 1.0 0.00 0.00 0.00 23 1008.8
20260901011011 83 201 0.0 1.0 0.00 0.00 0.00 24 1008.8
20260901010511 84 204 0.0 1.0 0.00 0.00 0.00 25 1008.8
20260901010017 84 204 0.0 1.0 0.00 0.00 0.00 23 1008.8
20260901005511 85 298 0.0 1.0 0.00 0.00 0.00 21 1008.7
20260901005009 85 205 0.0 1.0 0.00 0.00 0.00 22 1008.8
20260901004508 86 234 0.0 1.0 0.00 0.00 0.00 22 1009.0
20260901004007 86 288 0.0 2.0 0.00 0.00 0.00 19 1009.1
20260901003510 86 304 0.0 2.0 0.00 0.00 0.00 19 1009.1